星链-3766 (STARLINK-3766 )

导读

STARLINK-3766是美国SpaceX公司星链(Starlink)星座中的一颗互联网卫星,于2022年4月21日发射入轨。作为星链低轨卫星互联网项目的组成部分,它旨在为全球偏远地区提供低延迟、高速宽带互联网服务,该卫星运行在近地轨道,单星质量约数百公斤,采用猎鹰9号火箭执行发射任务,是星链万颗卫星组网计划的一环,目前在轨提供服务支撑全球卫星互联网覆盖。

Basic Information
目录编号:
52296
目录名称:
STARLINK-3766
国际标识:
2022-041AM
轨道中心:
EARTH
卫星名称:
星链-3766
卫星全名:
星链-3766 (STARLINK-3766 )
卫星状态:
在轨 (已飞行1597 天)
发射日期:
2022-04-21 UTC
国别 :
美国 (US)
星等 :
--
Orbit Information
数据来源 国际轨道数据
星历时间: 2026-09-04T01:56:50+0800
11小时前
查看轨道信息
半长轴: 6840.886km
偏心率: 0.000117
轨道倾角: 53.164°
近地点辐角 83.658°
升交点赤经 9.683°
平近点角 276.455°
近地点: 461.948km
远地点: 463.55km
周期: 93.849分钟
每日圈数: 15.343847
Detailed Information
固有亮度:
5
最大亮度:
2.5
卫星平台:
Starlink v1.5
覆盖范围:
全球
运营商:
太空探索技术公司
运营商所在国:
美国
制造商(研发单位):
太空探索技术公司
制造商所在国:
美国
使用方式:
暂无
Satellite Introduction
星链(Starlink)计划是由太空探索技术公司(SpaceX)提出的一个巨型低轨卫星互联网星座项目,计划在2019年至2024年间在太空搭建由约1.2万颗卫星组成的“星链”网络,其中1584颗将部署在地球上空550千米处的近地轨道,并从2020年开始工作。该卫星仍在工作。
2D Orbit Map
3D Orbit Map
Orbit Altitude Analysis Chart
Orbit Inclination Analysis Chart
Orbit Comprehensive Analysis Chart
View Comprehensive Chart
Conjunction Data List
Event ID Objects TCA Miss Dist (km) Collision Risk Probability Collision Risk Index (CRI) Action
CDM_260903-164203-279105-229624
SEEDS (32791)
2026-09-03T
16:42:56+0000
0.701 km
远距离
7.891707E-5 中风险 0.73
CDM_260903-211005-175605-229621
2026-09-03T
21:10:20+0000
2.363 km
极远距离
1.710049E-6 低风险 0.4
CDM_260903-221103-279105-229622
SEEDS (32791)
2026-09-03T
22:11:26+0000
2.572 km
极远距离
1.55545E-6 低风险 0.39
CDM_260828-094305-177005-229621
2026-08-28T
09:43:10+0000
2.412 km
极远距离
1.534499E-6 低风险 0.39
CDM_260904-215005-229606-487521
REAL (64875)
2026-09-04T
21:50:36+0000
2.255 km
极远距离
1.479244E-6 低风险 0.38
CDM_260903-025005-229605-326621
2026-09-03T
02:50:50+0000
2.772 km
极远距离
1.114595E-6 低风险 0.36